Zurück zum Katalog

ARIANE 44L DEB

AktivHEO
NORAD 24724·DEBRIS·🇫🇷 France

Gestartet Jan 15, 1991 von Guiana Space Centre

Loading…

Nächste Überflüge (nächste 24 Stunden)

TLE

AktuellSource: Space-Track

Epoche: Sep 14, 2026, 05:20 UTC

1 24724U 91003G   26257.22267805  .00000455  00000-0  16415-2 0  9999
2 24724   5.6730 281.3607 6739523   8.8627 358.8123  2.85924530307216

Verfolge ARIANE 44L DEB in Echtzeit mit AllMySat

Download on the App Store